Time,TemperatureF,DewpointF,PressureIn,WindDirection,WindDirectionDegrees,WindSpeedMPH,WindSpeedGustMPH,Humidity,HourlyPrecipIn,Conditions,Clouds,dailyrainin,SolarRadiationWatts/m^2,SoftwareType,DateUTC
2013-01-14 00:06:00,52.3,52.0,29.99,NNW,327,0.0,-999.0,98,-99.99,,,0.00,0,weatherlink.com 1.10,2013-01-14 05:06:00,
2013-01-14 00:21:00,52.3,52.0,29.99,East,90,0.0,-999.0,98,-99.99,,,0.00,0,weatherlink.com 1.10,2013-01-14 05:21:00,
2013-01-14 00:36:00,52.4,52.0,29.98,SSW,196,0.0,-999.0,98,-99.99,,,0.00,0,weatherlink.com 1.10,2013-01-14 05:36:00,
2013-01-14 00:51:00,52.6,52.0,29.98,SSW,212,0.0,-999.0,98,-99.99,,,0.00,0,weatherlink.com 1.10,2013-01-14 05:51:00,
2013-01-14 01:06:00,52.8,52.0,29.98,SSW,211,1.0,-999.0,98,-99.99,,,0.00,0,weatherlink.com 1.10,2013-01-14 06:06:00,
2013-01-14 01:21:00,53.1,53.0,29.97,SW,232,4.0,-999.0,98,-99.99,,,0.00,0,weatherlink.com 1.10,2013-01-14 06:21:00,
2013-01-14 01:36:00,53.3,53.0,29.96,South,186,0.0,-999.0,97,-99.99,,,0.00,0,weatherlink.com 1.10,2013-01-14 06:36:00,
2013-01-14 01:51:00,53.5,53.0,29.96,WSW,258,0.0,-999.0,97,-99.99,,,0.00,0,weatherlink.com 1.10,2013-01-14 06:51:00,
2013-01-14 02:06:00,53.7,53.0,29.97,WSW,242,1.0,-999.0,97,-99.99,,,0.00,0,weatherlink.com 1.10,2013-01-14 07:06:00,
2013-01-14 02:21:00,53.7,53.0,29.97,SSE,168,0.0,-999.0,97,-99.99,,,0.00,0,weatherlink.com 1.10,2013-01-14 07:21:00,
2013-01-14 02:36:00,53.8,53.0,29.97,SW,217,0.0,-999.0,97,-99.99,,,0.00,0,weatherlink.com 1.10,2013-01-14 07:36:00,
2013-01-14 02:51:00,53.9,53.0,29.97,SSW,202,0.0,-999.0,97,-99.99,,,0.00,0,weatherlink.com 1.10,2013-01-14 07:51:00,
2013-01-14 03:06:00,54.1,53.0,29.96,SSE,151,1.0,-999.0,97,-99.99,,,0.00,0,weatherlink.com 1.10,2013-01-14 08:06:00,
2013-01-14 03:21:00,54.3,54.0,29.96,SE,129,0.0,-999.0,97,-99.99,,,0.00,0,weatherlink.com 1.10,2013-01-14 08:21:00,
2013-01-14 03:36:00,54.4,54.0,29.95,SSW,201,0.0,-999.0,97,-99.99,,,0.00,0,weatherlink.com 1.10,2013-01-14 08:36:00,
2013-01-14 03:51:00,54.3,54.0,29.93,WSW,248,2.0,-999.0,97,-99.99,,,0.00,0,weatherlink.com 1.10,2013-01-14 08:51:00,
2013-01-14 04:06:00,54.3,54.0,29.93,SSW,207,0.0,-999.0,97,-99.99,,,0.00,0,weatherlink.com 1.10,2013-01-14 09:06:00,
2013-01-14 04:21:00,54.2,53.0,29.93,SSE,157,0.0,-999.0,97,-99.99,,,0.00,0,weatherlink.com 1.10,2013-01-14 09:21:00,
2013-01-14 04:36:00,54.0,53.0,29.92,WSW,249,1.0,-999.0,97,-99.99,,,0.00,0,weatherlink.com 1.10,2013-01-14 09:36:00,
2013-01-14 04:51:00,53.7,53.0,29.92,SSW,207,8.0,-999.0,97,-99.99,,,0.00,0,weatherlink.com 1.10,2013-01-14 09:51:00,
2013-01-14 05:06:00,53.3,53.0,29.93,WSW,243,3.0,-999.0,97,-99.99,,,0.00,0,weatherlink.com 1.10,2013-01-14 10:06:00,
2013-01-14 05:21:00,53.2,52.0,29.93,NNW,340,0.0,-999.0,97,-99.99,,,0.00,0,weatherlink.com 1.10,2013-01-14 10:21:00,
2013-01-14 05:36:00,53.2,52.0,29.93,SW,236,0.0,-999.0,97,-99.99,,,0.00,0,weatherlink.com 1.10,2013-01-14 10:36:00,
2013-01-14 05:51:00,53.1,52.0,29.94,SSW,209,0.0,-999.0,97,-99.99,,,0.00,0,weatherlink.com 1.10,2013-01-14 10:51:00,
2013-01-14 06:06:00,53.0,52.0,29.94,SSE,156,0.0,-999.0,96,-99.99,,,0.00,0,weatherlink.com 1.10,2013-01-14 11:06:00,
2013-01-14 06:21:00,52.8,52.0,29.94,WSW,242,1.0,-999.0,96,-99.99,,,0.00,0,weatherlink.com 1.10,2013-01-14 11:21:00,
2013-01-14 06:36:00,52.9,52.0,29.93,WSW,249,3.0,-999.0,97,-99.99,,,0.00,0,weatherlink.com 1.10,2013-01-14 11:36:00,
2013-01-14 06:51:00,53.0,52.0,29.93,South,178,0.0,-999.0,96,-99.99,,,0.00,0,weatherlink.com 1.10,2013-01-14 11:51:00,
2013-01-14 07:06:00,52.9,52.0,29.93,WSW,257,3.0,-999.0,96,-99.99,,,0.00,0,weatherlink.com 1.10,2013-01-14 12:06:00,
2013-01-14 07:21:00,53.0,52.0,29.93,South,183,2.0,-999.0,96,-99.99,,,0.00,5,weatherlink.com 1.10,2013-01-14 12:21:00,
2013-01-14 07:36:00,53.3,52.0,29.90,SSE,159,2.0,-999.0,96,-99.99,,,0.00,19,weatherlink.com 1.10,2013-01-14 12:36:00,
2013-01-14 07:51:00,53.5,52.0,29.90,SE,137,6.0,-999.0,96,-99.99,,,0.00,25,weatherlink.com 1.10,2013-01-14 12:51:00,
2013-01-14 08:06:00,53.9,53.0,29.89,SW,225,3.0,-999.0,96,-99.99,,,0.00,30,weatherlink.com 1.10,2013-01-14 13:06:00,
2013-01-14 08:21:00,54.1,53.0,29.86,SSE,165,4.0,-999.0,96,-99.99,,,0.00,40,weatherlink.com 1.10,2013-01-14 13:21:00,
2013-01-14 08:36:00,54.2,53.0,29.89,SE,144,6.0,-999.0,96,-99.99,,,0.00,37,weatherlink.com 1.10,2013-01-14 13:36:00,
2013-01-14 08:51:00,54.2,53.0,29.92,NNW,347,0.0,-999.0,96,-99.99,,,0.00,28,weatherlink.com 1.10,2013-01-14 13:51:00,
2013-01-14 09:06:00,54.4,53.0,29.93,SW,223,0.0,-999.0,96,-99.99,,,0.00,30,weatherlink.com 1.10,2013-01-14 14:06:00,
2013-01-14 09:21:00,54.3,53.0,29.97,West,276,5.0,-999.0,96,-99.99,,,0.00,21,weatherlink.com 1.10,2013-01-14 14:21:00,
2013-01-14 09:36:00,54.3,54.0,29.97,South,174,0.0,-999.0,97,-99.99,,,0.00,37,weatherlink.com 1.10,2013-01-14 14:36:00,
2013-01-14 09:51:00,54.4,54.0,29.97,WSW,238,2.0,-999.0,97,-99.99,,,0.00,47,weatherlink.com 1.10,2013-01-14 14:51:00,
2013-01-14 10:06:00,54.4,53.0,29.98,WNW,292,0.0,-999.0,96,-99.99,,,0.00,35,weatherlink.com 1.10,2013-01-14 15:06:00,
2013-01-14 10:21:00,54.3,53.0,29.98,NNW,342,0.0,-999.0,96,-99.99,,,0.00,65,weatherlink.com 1.10,2013-01-14 15:21:00,
2013-01-14 10:36:00,54.4,53.0,29.97,NW,304,0.0,-999.0,96,-99.99,,,0.00,105,weatherlink.com 1.10,2013-01-14 15:36:00,
2013-01-14 10:51:00,54.6,54.0,29.98,WNW,291,2.0,-999.0,96,-99.99,,,0.00,128,weatherlink.com 1.10,2013-01-14 15:51:00,
2013-01-14 11:06:00,55.1,54.0,29.97,NW,309,4.0,-999.0,96,-99.99,,,0.00,181,weatherlink.com 1.10,2013-01-14 16:06:00,
2013-01-14 11:21:00,55.9,55.0,29.98,NW,324,4.0,-999.0,96,-99.99,,,0.00,127,weatherlink.com 1.10,2013-01-14 16:21:00,
2013-01-14 11:37:00,56.5,55.0,29.98,SW,235,0.0,-999.0,93,-99.99,,,0.00,120,weatherlink.com 1.10,2013-01-14 16:37:00,
2013-01-14 11:52:00,56.6,54.0,29.97,West,259,4.0,-999.0,92,-99.99,,,0.01,186,weatherlink.com 1.10,2013-01-14 16:52:00,
2013-01-14 12:07:00,57.0,55.0,29.96,WNW,292,2.0,-999.0,91,-99.99,,,0.01,241,weatherlink.com 1.10,2013-01-14 17:07:00,
2013-01-14 12:22:00,57.7,54.0,29.96,NW,317,5.0,-999.0,88,-99.99,,,0.01,216,weatherlink.com 1.10,2013-01-14 17:22:00,
2013-01-14 12:37:00,58.3,54.0,29.95,SW,235,2.0,-999.0,86,-99.99,,,0.01,290,weatherlink.com 1.10,2013-01-14 17:37:00,
2013-01-14 12:52:00,58.9,54.0,29.95,NW,306,0.0,-999.0,84,-99.99,,,0.01,141,weatherlink.com 1.10,2013-01-14 17:52:00,
2013-01-14 13:07:00,59.1,54.0,29.95,West,275,0.0,-999.0,82,-99.99,,,0.01,186,weatherlink.com 1.10,2013-01-14 18:07:00,
2013-01-14 13:22:00,59.3,54.0,29.96,West,278,0.0,-999.0,81,-99.99,,,0.01,127,weatherlink.com 1.10,2013-01-14 18:22:00,
2013-01-14 13:37:00,59.2,53.0,29.97,NNW,338,0.0,-999.0,80,-99.99,,,0.01,74,weatherlink.com 1.10,2013-01-14 18:37:00,
2013-01-14 13:52:00,59.5,53.0,29.97,WNW,299,0.0,-999.0,80,-99.99,,,0.01,121,weatherlink.com 1.10,2013-01-14 18:52:00,
2013-01-14 14:07:00,60.0,52.0,29.99,WSW,245,0.0,-999.0,76,-99.99,,,0.01,93,weatherlink.com 1.10,2013-01-14 19:07:00,
2013-01-14 14:22:00,60.6,52.0,29.98,NNE,24,6.0,-999.0,73,-99.99,,,0.01,79,weatherlink.com 1.10,2013-01-14 19:22:00,
2013-01-14 14:37:00,61.0,49.0,30.00,NW,304,5.0,-999.0,64,-99.99,,,0.01,135,weatherlink.com 1.10,2013-01-14 19:37:00,
2013-01-14 14:52:00,61.1,47.0,30.01,NW,317,5.0,-999.0,61,-99.99,,,0.01,141,weatherlink.com 1.10,2013-01-14 19:52:00,
2013-01-14 15:07:00,60.8,45.0,30.02,North,351,5.0,-999.0,56,-99.99,,,0.01,84,weatherlink.com 1.10,2013-01-14 20:07:00,
2013-01-14 15:22:00,60.4,45.0,30.02,NW,321,1.0,-999.0,57,-99.99,,,0.01,37,weatherlink.com 1.10,2013-01-14 20:22:00,
2013-01-14 15:37:00,59.8,44.0,30.02,West,259,4.0,-999.0,57,-99.99,,,0.01,30,weatherlink.com 1.10,2013-01-14 20:37:00,
2013-01-14 15:53:00,59.4,44.0,30.04,WNW,293,0.0,-999.0,57,-99.99,,,0.01,26,weatherlink.com 1.10,2013-01-14 20:53:00,
2013-01-14 16:07:00,58.8,43.0,30.04,WNW,292,0.0,-999.0,57,-99.99,,,0.01,16,weatherlink.com 1.10,2013-01-14 21:07:00,
2013-01-14 16:22:00,58.0,43.0,30.06,West,268,2.0,-999.0,58,-99.99,,,0.01,0,weatherlink.com 1.10,2013-01-14 21:22:00,
2013-01-14 16:37:00,57.4,39.0,30.06,NNW,333,9.0,-999.0,51,-99.99,,,0.01,0,weatherlink.com 1.10,2013-01-14 21:37:00,
2013-01-14 16:52:00,56.8,37.0,30.07,NW,305,4.0,-999.0,47,-99.99,,,0.01,0,weatherlink.com 1.10,2013-01-14 21:52:00,
2013-01-14 17:07:00,56.0,35.0,30.07,WNW,296,5.0,-999.0,46,-99.99,,,0.01,0,weatherlink.com 1.10,2013-01-14 22:07:00,
2013-01-14 17:22:00,55.3,36.0,30.08,NNW,340,4.0,-999.0,48,-99.99,,,0.01,0,weatherlink.com 1.10,2013-01-14 22:22:00,
2013-01-14 17:37:00,54.6,36.0,30.08,NW,311,4.0,-999.0,50,-99.99,,,0.01,0,weatherlink.com 1.10,2013-01-14 22:37:00,
2013-01-14 17:52:00,54.1,36.0,30.08,NNW,333,4.0,-999.0,51,-99.99,,,0.01,0,weatherlink.com 1.10,2013-01-14 22:52:00,
2013-01-14 18:07:00,53.3,36.0,30.07,NW,323,4.0,-999.0,53,-99.99,,,0.01,0,weatherlink.com 1.10,2013-01-14 23:07:00,
2013-01-14 18:22:00,52.5,37.0,30.08,NW,316,8.0,-999.0,55,-99.99,,,0.01,0,weatherlink.com 1.10,2013-01-14 23:22:00,
2013-01-14 18:37:00,51.8,37.0,30.09,NW,321,6.0,-999.0,57,-99.99,,,0.01,0,weatherlink.com 1.10,2013-01-14 23:37:00,
2013-01-14 18:52:00,51.2,37.0,30.09,WNW,292,0.0,-999.0,58,-99.99,,,0.01,0,weatherlink.com 1.10,2013-01-14 23:52:00,
2013-01-14 19:07:00,50.8,37.0,30.11,NNW,346,0.0,-999.0,59,-99.99,,,0.01,0,weatherlink.com 1.10,2013-01-15 00:07:00,
2013-01-14 19:22:00,50.4,37.0,30.10,North,355,5.0,-999.0,60,-99.99,,,0.01,0,weatherlink.com 1.10,2013-01-15 00:22:00,
2013-01-14 19:37:00,49.9,37.0,30.11,NW,321,2.0,-999.0,61,-99.99,,,0.01,0,weatherlink.com 1.10,2013-01-15 00:37:00,
2013-01-14 19:53:00,49.6,37.0,30.11,NNW,342,6.0,-999.0,62,-99.99,,,0.01,0,weatherlink.com 1.10,2013-01-15 00:53:00,
2013-01-14 20:08:00,49.2,37.0,30.12,NW,318,5.0,-999.0,63,-99.99,,,0.01,0,weatherlink.com 1.10,2013-01-15 01:08:00,
2013-01-14 20:23:00,49.1,37.0,30.14,NW,312,4.0,-999.0,63,-99.99,,,0.01,0,weatherlink.com 1.10,2013-01-15 01:23:00,
2013-01-14 20:38:00,48.9,37.0,30.14,NW,317,5.0,-999.0,64,-99.99,,,0.01,0,weatherlink.com 1.10,2013-01-15 01:38:00,
2013-01-14 20:53:00,48.7,36.0,30.14,NW,313,5.0,-999.0,62,-99.99,,,0.01,0,weatherlink.com 1.10,2013-01-15 01:53:00,
2013-01-14 21:08:00,48.3,35.0,30.15,NNW,329,10.0,-999.0,60,-99.99,,,0.01,0,weatherlink.com 1.10,2013-01-15 02:08:00,
2013-01-14 21:23:00,47.9,31.0,30.15,NNW,342,15.0,-999.0,53,-99.99,,,0.01,0,weatherlink.com 1.10,2013-01-15 02:23:00,
2013-01-14 21:38:00,47.6,31.0,30.15,NNW,328,13.0,-999.0,53,-99.99,,,0.01,0,weatherlink.com 1.10,2013-01-15 02:38:00,
2013-01-14 21:53:00,47.0,32.0,30.15,North,350,10.0,-999.0,57,-99.99,,,0.01,0,weatherlink.com 1.10,2013-01-15 02:53:00,
2013-01-14 22:23:00,46.0,33.0,30.16,North,5,7.0,-999.0,60,-99.99,,,0.00,0,weatherlink.com 1.10,2013-01-15 03:23:00,
2013-01-14 22:38:00,44.9,34.0,30.18,NNW,342,0.0,-999.0,65,-99.99,,,0.00,0,weatherlink.com 1.10,2013-01-15 03:38:00,
2013-01-14 22:53:00,44.3,33.0,30.16,NNW,333,8.0,-999.0,64,-99.99,,,0.00,0,weatherlink.com 1.10,2013-01-15 03:53:00,
2013-01-14 23:08:00,44.7,32.0,30.24,NNW,327,8.0,-999.0,61,-99.99,,,0.00,0,weatherlink.com 1.10,2013-01-15 04:08:00,
2013-01-14 23:23:00,44.7,33.0,30.21,North,355,5.0,-999.0,63,-99.99,,,0.00,0,weatherlink.com 1.10,2013-01-15 04:23:00,
2013-01-14 23:38:00,43.6,34.0,30.20,NNW,342,8.0,-999.0,68,-99.99,,,0.00,0,weatherlink.com 1.10,2013-01-15 04:38:00,
2013-01-14 23:53:00,42.3,35.0,30.24,NNW,347,0.0,-999.0,75,-99.99,,,0.00,0,weatherlink.com 1.10,2013-01-15 04:53:00,